owner,sensor,date,latitude,longitude,vertical_datum,sea_water_temperature,qcFlag 
NERRS,ioos:station:NOAA.NERRS:marscwq:1,2017-03-23T12:00:00Z,27.8383,-97.0503,0.0,22.2,2 
NERRS,ioos:station:NOAA.NERRS:marscwq:1,2017-03-23T19:00:00Z,27.8383,-97.0503,0.0,20.3,2 
NERRS,ioos:station:NOAA.NERRS:marscwq:1,2017-03-23T20:00:00Z,27.8383,-97.0503,0.0,20.2,2 
NERRS,ioos:station:NOAA.NERRS:marscwq:1,2017-03-23T21:00:00Z,27.8383,-97.0503,0.0,20.3,2 
NERRS,ioos:station:NOAA.NERRS:marscwq:1,2017-03-23T22:00:00Z,27.8383,-97.0503,0.0,20.4,2 
NERRS,ioos:station:NOAA.NERRS:marscwq:1,2017-03-23T23:00:00Z,27.8383,-97.0503,0.0,20.4,2 
NERRS,ioos:station:NOAA.NERRS:marscwq:1,2017-03-24T00:00:00Z,27.8383,-97.0503,0.0,20.5,2 
NERRS,ioos:station:NOAA.NERRS:marscwq:1,2017-03-24T01:00:00Z,27.8383,-97.0503,0.0,20.5,2 
NERRS,ioos:station:NOAA.NERRS:marscwq:1,2017-03-24T02:00:00Z,27.8383,-97.0503,0.0,20.6,2 
NERRS,ioos:station:NOAA.NERRS:marscwq:1,2017-03-24T03:00:00Z,27.8383,-97.0503,0.0,20.7,2 
NERRS,ioos:station:NOAA.NERRS:marscwq:1,2017-03-24T04:00:00Z,27.8383,-97.0503,0.0,20.7,2 
NERRS,ioos:station:NOAA.NERRS:marscwq:1,2017-03-24T05:00:00Z,27.8383,-97.0503,0.0,20.7,2 
NERRS,ioos:station:NOAA.NERRS:marscwq:1,2017-03-24T06:00:00Z,27.8383,-97.0503,0.0,20.8,2 
NERRS,ioos:station:NOAA.NERRS:marscwq:1,2017-03-24T07:00:00Z,27.8383,-97.0503,0.0,20.7,2 
NERRS,ioos:station:NOAA.NERRS:marscwq:1,2017-03-24T08:00:00Z,27.8383,-97.0503,0.0,20.9,2 
NERRS,ioos:station:NOAA.NERRS:marscwq:1,2017-03-24T09:00:00Z,27.8383,-97.0503,0.0,20.8,2 
NERRS,ioos:station:NOAA.NERRS:marscwq:1,2017-03-24T10:00:00Z,27.8383,-97.0503,0.0,20.8,2 
NERRS,ioos:station:NOAA.NERRS:marscwq:1,2017-03-24T11:00:00Z,27.8383,-97.0503,0.0,20.7,2 
NERRS,ioos:station:NOAA.NERRS:marscwq:1,2017-03-24T12:00:00Z,27.8383,-97.0503,0.0,20.6,2 
NERRS,ioos:station:NOAA.NERRS:marscwq:1,2017-03-24T13:00:00Z,27.8383,-97.0503,0.0,20.6,2 
NERRS,ioos:station:NOAA.NERRS:marscwq:1,2017-03-24T14:00:00Z,27.8383,-97.0503,0.0,21.0,2 
NERRS,ioos:station:NOAA.NERRS:marscwq:1,2017-03-24T15:00:00Z,27.8383,-97.0503,0.0,21.1,2 
NERRS,ioos:station:NOAA.NERRS:marscwq:1,2017-03-24T17:00:00Z,27.8383,-97.0503,0.0,21.5,2 
NERRS,ioos:station:NOAA.NERRS:marscwq:1,2017-03-24T18:00:00Z,27.8383,-97.0503,0.0,21.4,2 
NERRS,ioos:station:NOAA.NERRS:marscwq:1,2017-03-24T19:00:00Z,27.8383,-97.0503,0.0,21.1,2 
NERRS,ioos:station:NOAA.NERRS:marscwq:1,2017-03-24T21:00:00Z,27.8383,-97.0503,0.0,20.9,2 
NERRS,ioos:station:NOAA.NERRS:marscwq:1,2017-03-24T22:00:00Z,27.8383,-97.0503,0.0,20.7,2 
NERRS,ioos:station:NOAA.NERRS:marscwq:1,2017-03-24T23:00:00Z,27.8383,-97.0503,0.0,20.7,2 
NERRS,ioos:station:NOAA.NERRS:marscwq:1,2017-03-25T00:00:00Z,27.8383,-97.0503,0.0,20.9,2 
NERRS,ioos:station:NOAA.NERRS:marscwq:1,2017-03-25T01:00:00Z,27.8383,-97.0503,0.0,20.9,2 
NERRS,ioos:station:NOAA.NERRS:marscwq:1,2017-03-25T02:00:00Z,27.8383,-97.0503,0.0,20.9,2 
NERRS,ioos:station:NOAA.NERRS:marscwq:1,2017-03-25T03:00:00Z,27.8383,-97.0503,0.0,21.0,2 
NERRS,ioos:station:NOAA.NERRS:marscwq:1,2017-03-25T04:00:00Z,27.8383,-97.0503,0.0,21.0,2 
NERRS,ioos:station:NOAA.NERRS:marscwq:1,2017-03-25T05:00:00Z,27.8383,-97.0503,0.0,20.9,2 
NERRS,ioos:station:NOAA.NERRS:marscwq:1,2017-03-25T06:00:00Z,27.8383,-97.0503,0.0,20.8,2 
NERRS,ioos:station:NOAA.NERRS:marscwq:1,2017-03-25T07:00:00Z,27.8383,-97.0503,0.0,20.9,2 
NERRS,ioos:station:NOAA.NERRS:marscwq:1,2017-03-25T08:00:00Z,27.8383,-97.0503,0.0,21.0,2 
NERRS,ioos:station:NOAA.NERRS:marscwq:1,2017-03-25T09:00:00Z,27.8383,-97.0503,0.0,20.9,2 
NERRS,ioos:station:NOAA.NERRS:marscwq:1,2017-03-25T10:00:00Z,27.8383,-97.0503,0.0,20.9,2 
NERRS,ioos:station:NOAA.NERRS:marscwq:1,2017-03-25T11:00:00Z,27.8383,-97.0503,0.0,20.9,2 
NERRS,ioos:station:NOAA.NERRS:marscwq:1,2017-03-25T12:00:00Z,27.8383,-97.0503,0.0,20.9,2 
NERRS,ioos:station:NOAA.NERRS:marscwq:1,2017-03-25T13:00:00Z,27.8383,-97.0503,0.0,21.0,2 
NERRS,ioos:station:NOAA.NERRS:marscwq:1,2017-03-25T14:00:00Z,27.8383,-97.0503,0.0,21.2,2 
NERRS,ioos:station:NOAA.NERRS:marscwq:1,2017-03-25T15:00:00Z,27.8383,-97.0503,0.0,21.4,2 
NERRS,ioos:station:NOAA.NERRS:marscwq:1,2017-03-25T16:00:00Z,27.8383,-97.0503,0.0,21.6,2 
NERRS,ioos:station:NOAA.NERRS:marscwq:1,2017-03-25T17:00:00Z,27.8383,-97.0503,0.0,21.6,2 
NERRS,ioos:station:NOAA.NERRS:marscwq:1,2017-03-25T18:00:00Z,27.8383,-97.0503,0.0,21.9,2 
NERRS,ioos:station:NOAA.NERRS:marscwq:1,2017-03-25T19:00:00Z,27.8383,-97.0503,0.0,22.0,2 
NERRS,ioos:station:NOAA.NERRS:marscwq:1,2017-03-25T20:00:00Z,27.8383,-97.0503,0.0,21.8,2 
NERRS,ioos:station:NOAA.NERRS:marscwq:1,2017-03-25T21:00:00Z,27.8383,-97.0503,0.0,20.7,2 
NERRS,ioos:station:NOAA.NERRS:marscwq:1,2017-03-25T22:00:00Z,27.8383,-97.0503,0.0,21.1,2 
NERRS,ioos:station:NOAA.NERRS:marscwq:1,2017-03-25T23:00:00Z,27.8383,-97.0503,0.0,21.4,2 
NERRS,ioos:station:NOAA.NERRS:marscwq:1,2017-03-26T00:00:00Z,27.8383,-97.0503,0.0,21.3,2 
NERRS,ioos:station:NOAA.NERRS:marscwq:1,2017-03-26T01:00:00Z,27.8383,-97.0503,0.0,21.1,2 
NERRS,ioos:station:NOAA.NERRS:marscwq:1,2017-03-26T03:00:00Z,27.8383,-97.0503,0.0,21.3,2 
NERRS,ioos:station:NOAA.NERRS:marscwq:1,2017-03-26T04:00:00Z,27.8383,-97.0503,0.0,21.1,2 
NERRS,ioos:station:NOAA.NERRS:marscwq:1,2017-03-26T05:00:00Z,27.8383,-97.0503,0.0,21.2,2 
NERRS,ioos:station:NOAA.NERRS:marscwq:1,2017-03-26T06:00:00Z,27.8383,-97.0503,0.0,21.1,2 
NERRS,ioos:station:NOAA.NERRS:marscwq:1,2017-03-26T07:00:00Z,27.8383,-97.0503,0.0,21.2,2 
NERRS,ioos:station:NOAA.NERRS:marscwq:1,2017-03-26T08:00:00Z,27.8383,-97.0503,0.0,21.2,2 
NERRS,ioos:station:NOAA.NERRS:marscwq:1,2017-03-26T09:00:00Z,27.8383,-97.0503,0.0,20.8,2 
NERRS,ioos:station:NOAA.NERRS:marscwq:1,2017-03-26T10:00:00Z,27.8383,-97.0503,0.0,20.7,2 
NERRS,ioos:station:NOAA.NERRS:marscwq:1,2017-03-26T11:00:00Z,27.8383,-97.0503,0.0,20.8,2 
NERRS,ioos:station:NOAA.NERRS:marscwq:1,2017-03-26T12:00:00Z,27.8383,-97.0503,0.0,20.6,2 
NERRS,ioos:station:NOAA.NERRS:marscwq:1,2017-03-26T13:00:00Z,27.8383,-97.0503,0.0,20.8,2 
NERRS,ioos:station:NOAA.NERRS:marscwq:1,2017-03-26T14:00:00Z,27.8383,-97.0503,0.0,20.8,2 
NERRS,ioos:station:NOAA.NERRS:marscwq:1,2017-03-26T15:00:00Z,27.8383,-97.0503,0.0,21.2,2 
NERRS,ioos:station:NOAA.NERRS:marscwq:1,2017-03-26T16:00:00Z,27.8383,-97.0503,0.0,21.4,2 
NERRS,ioos:station:NOAA.NERRS:marscwq:1,2017-03-26T17:00:00Z,27.8383,-97.0503,0.0,21.9,2 
NERRS,ioos:station:NOAA.NERRS:marscwq:1,2017-03-26T18:00:00Z,27.8383,-97.0503,0.0,21.9,2 
NERRS,ioos:station:NOAA.NERRS:marscwq:1,2017-03-26T19:00:00Z,27.8383,-97.0503,0.0,22.3,2 
NERRS,ioos:station:NOAA.NERRS:marscwq:1,2017-03-26T20:00:00Z,27.8383,-97.0503,0.0,20.6,2 
NERRS,ioos:station:NOAA.NERRS:marscwq:1,2017-03-26T21:00:00Z,27.8383,-97.0503,0.0,21.0,2 
NERRS,ioos:station:NOAA.NERRS:marscwq:1,2017-03-26T22:00:00Z,27.8383,-97.0503,0.0,21.0,2 
NERRS,ioos:station:NOAA.NERRS:marscwq:1,2017-03-26T23:00:00Z,27.8383,-97.0503,0.0,21.2,2 
NERRS,ioos:station:NOAA.NERRS:marscwq:1,2017-03-27T00:00:00Z,27.8383,-97.0503,0.0,21.3,2 
NERRS,ioos:station:NOAA.NERRS:marscwq:1,2017-03-27T01:00:00Z,27.8383,-97.0503,0.0,21.4,2 
NERRS,ioos:station:NOAA.NERRS:marscwq:1,2017-03-27T02:00:00Z,27.8383,-97.0503,0.0,21.7,2 
NERRS,ioos:station:NOAA.NERRS:marscwq:1,2017-03-27T03:00:00Z,27.8383,-97.0503,0.0,21.9,2 
NERRS,ioos:station:NOAA.NERRS:marscwq:1,2017-03-27T04:00:00Z,27.8383,-97.0503,0.0,21.8,2 
NERRS,ioos:station:NOAA.NERRS:marscwq:1,2017-03-27T05:00:00Z,27.8383,-97.0503,0.0,22.0,2 
NERRS,ioos:station:NOAA.NERRS:marscwq:1,2017-03-27T06:00:00Z,27.8383,-97.0503,0.0,21.9,2 
NERRS,ioos:station:NOAA.NERRS:marscwq:1,2017-03-27T07:00:00Z,27.8383,-97.0503,0.0,21.5,2 
NERRS,ioos:station:NOAA.NERRS:marscwq:1,2017-03-27T08:00:00Z,27.8383,-97.0503,0.0,21.3,2 
NERRS,ioos:station:NOAA.NERRS:marscwq:1,2017-03-27T09:00:00Z,27.8383,-97.0503,0.0,21.6,2 
NERRS,ioos:station:NOAA.NERRS:marscwq:1,2017-03-27T10:00:00Z,27.8383,-97.0503,0.0,21.8,2 
NERRS,ioos:station:NOAA.NERRS:marscwq:1,2017-03-27T11:00:00Z,27.8383,-97.0503,0.0,21.7,2 
NERRS,ioos:station:NOAA.NERRS:marscwq:1,2017-03-27T12:00:00Z,27.8383,-97.0503,0.0,21.6,2 
NERRS,ioos:station:NOAA.NERRS:marscwq:1,2017-03-27T13:00:00Z,27.8383,-97.0503,0.0,21.5,2 
NERRS,ioos:station:NOAA.NERRS:marscwq:1,2017-03-27T14:00:00Z,27.8383,-97.0503,0.0,21.5,2 
NERRS,ioos:station:NOAA.NERRS:marscwq:1,2017-03-27T15:00:00Z,27.8383,-97.0503,0.0,21.4,2 
NERRS,ioos:station:NOAA.NERRS:marscwq:1,2017-03-27T16:00:00Z,27.8383,-97.0503,0.0,21.5,2 
NERRS,ioos:station:NOAA.NERRS:marscwq:1,2017-03-27T17:00:00Z,27.8383,-97.0503,0.0,21.9,2 
NERRS,ioos:station:NOAA.NERRS:marscwq:1,2017-03-27T18:00:00Z,27.8383,-97.0503,0.0,22.1,2 
NERRS,ioos:station:NOAA.NERRS:marscwq:1,2017-03-27T19:00:00Z,27.8383,-97.0503,0.0,22.3,2 
NERRS,ioos:station:NOAA.NERRS:marscwq:1,2017-03-27T20:00:00Z,27.8383,-97.0503,0.0,22.4,2 
NERRS,ioos:station:NOAA.NERRS:marscwq:1,2017-03-27T21:00:00Z,27.8383,-97.0503,0.0,22.3,2 
NERRS,ioos:station:NOAA.NERRS:marscwq:1,2017-03-27T22:00:00Z,27.8383,-97.0503,0.0,21.9,2 
NERRS,ioos:station:NOAA.NERRS:marscwq:1,2017-03-27T23:00:00Z,27.8383,-97.0503,0.0,21.8,2 
NERRS,ioos:station:NOAA.NERRS:marscwq:1,2017-03-28T00:00:00Z,27.8383,-97.0503,0.0,22.0,2 
NERRS,ioos:station:NOAA.NERRS:marscwq:1,2017-03-28T01:00:00Z,27.8383,-97.0503,0.0,22.1,2 
NERRS,ioos:station:NOAA.NERRS:marscwq:1,2017-03-28T02:00:00Z,27.8383,-97.0503,0.0,22.3,2 
NERRS,ioos:station:NOAA.NERRS:marscwq:1,2017-03-28T03:00:00Z,27.8383,-97.0503,0.0,22.1,2 
NERRS,ioos:station:NOAA.NERRS:marscwq:1,2017-03-28T04:00:00Z,27.8383,-97.0503,0.0,22.0,2 
NERRS,ioos:station:NOAA.NERRS:marscwq:1,2017-03-28T05:00:00Z,27.8383,-97.0503,0.0,22.1,2 
NERRS,ioos:station:NOAA.NERRS:marscwq:1,2017-03-28T06:00:00Z,27.8383,-97.0503,0.0,22.0,2 
NERRS,ioos:station:NOAA.NERRS:marscwq:1,2017-03-28T07:00:00Z,27.8383,-97.0503,0.0,22.0,2 
NERRS,ioos:station:NOAA.NERRS:marscwq:1,2017-03-28T08:00:00Z,27.8383,-97.0503,0.0,21.9,2 
NERRS,ioos:station:NOAA.NERRS:marscwq:1,2017-03-28T09:00:00Z,27.8383,-97.0503,0.0,22.0,2 
NERRS,ioos:station:NOAA.NERRS:marscwq:1,2017-03-28T10:00:00Z,27.8383,-97.0503,0.0,21.9,2 
NERRS,ioos:station:NOAA.NERRS:marscwq:1,2017-03-28T11:00:00Z,27.8383,-97.0503,0.0,21.7,2 
NERRS,ioos:station:NOAA.NERRS:marscwq:1,2017-03-28T12:00:00Z,27.8383,-97.0503,0.0,21.7,2 
NERRS,ioos:station:NOAA.NERRS:marscwq:1,2017-03-28T13:00:00Z,27.8383,-97.0503,0.0,21.8,2 
NERRS,ioos:station:NOAA.NERRS:marscwq:1,2017-03-28T14:00:00Z,27.8383,-97.0503,0.0,21.9,2 
NERRS,ioos:station:NOAA.NERRS:marscwq:1,2017-03-28T15:00:00Z,27.8383,-97.0503,0.0,22.0,2 
NERRS,ioos:station:NOAA.NERRS:marscwq:1,2017-03-28T16:00:00Z,27.8383,-97.0503,0.0,22.0,2 
NERRS,ioos:station:NOAA.NERRS:marscwq:1,2017-03-28T17:00:00Z,27.8383,-97.0503,0.0,21.9,2 
NERRS,ioos:station:NOAA.NERRS:marscwq:1,2017-03-28T18:00:00Z,27.8383,-97.0503,0.0,22.0,2 
NERRS,ioos:station:NOAA.NERRS:marscwq:1,2017-03-28T20:00:00Z,27.8383,-97.0503,0.0,22.2,2 
NERRS,ioos:station:NOAA.NERRS:marscwq:1,2017-03-28T22:00:00Z,27.8383,-97.0503,0.0,22.5,2 
NERRS,ioos:station:NOAA.NERRS:marscwq:1,2017-03-28T23:00:00Z,27.8383,-97.0503,0.0,22.5,2 
NERRS,ioos:station:NOAA.NERRS:marscwq:1,2017-03-29T09:00:00Z,27.8383,-97.0503,0.0,22.6,2 
NERRS,ioos:station:NOAA.NERRS:marscwq:1,2017-03-29T10:00:00Z,27.8383,-97.0503,0.0,22.8,2 
NERRS,ioos:station:NOAA.NERRS:marscwq:1,2017-03-29T11:00:00Z,27.8383,-97.0503,0.0,23.1,2 
NERRS,ioos:station:NOAA.NERRS:marscwq:1,2017-03-29T12:00:00Z,27.8383,-97.0503,0.0,23.1,2 
NERRS,ioos:station:NOAA.NERRS:marscwq:1,2017-03-29T13:00:00Z,27.8383,-97.0503,0.0,23.0,2 
NERRS,ioos:station:NOAA.NERRS:marscwq:1,2017-03-29T14:00:00Z,27.8383,-97.0503,0.0,22.9,2 
NERRS,ioos:station:NOAA.NERRS:marscwq:1,2017-03-29T17:00:00Z,27.8383,-97.0503,0.0,22.7,2 
NERRS,ioos:station:NOAA.NERRS:marscwq:1,2017-03-29T18:00:00Z,27.8383,-97.0503,0.0,22.8,2 
NERRS,ioos:station:NOAA.NERRS:marscwq:1,2017-03-29T19:00:00Z,27.8383,-97.0503,0.0,23.0,2 
NERRS,ioos:station:NOAA.NERRS:marscwq:1,2017-03-29T22:00:00Z,27.8383,-97.0503,0.0,23.2,2 
NERRS,ioos:station:NOAA.NERRS:marscwq:1,2017-03-29T23:00:00Z,27.8383,-97.0503,0.0,23.1,2 
NERRS,ioos:station:NOAA.NERRS:marscwq:1,2017-03-30T00:00:00Z,27.8383,-97.0503,0.0,23.2,2 
NERRS,ioos:station:NOAA.NERRS:marscwq:1,2017-03-30T02:00:00Z,27.8383,-97.0503,0.0,23.6,2 
NERRS,ioos:station:NOAA.NERRS:marscwq:1,2017-03-30T03:00:00Z,27.8383,-97.0503,0.0,23.7,2 
NERRS,ioos:station:NOAA.NERRS:marscwq:1,2017-03-30T05:00:00Z,27.8383,-97.0503,0.0,24.2,2 
NERRS,ioos:station:NOAA.NERRS:marscwq:1,2017-03-30T06:00:00Z,27.8383,-97.0503,0.0,24.3,2 
NERRS,ioos:station:NOAA.NERRS:marscwq:1,2017-03-30T07:00:00Z,27.8383,-97.0503,0.0,24.4,2 
NERRS,ioos:station:NOAA.NERRS:marscwq:1,2017-03-30T08:00:00Z,27.8383,-97.0503,0.0,24.3,2 
NERRS,ioos:station:NOAA.NERRS:marscwq:1,2017-03-30T09:00:00Z,27.8383,-97.0503,0.0,24.3,2 
NERRS,ioos:station:NOAA.NERRS:marscwq:1,2017-03-30T10:00:00Z,27.8383,-97.0503,0.0,24.1,2 
NERRS,ioos:station:NOAA.NERRS:marscwq:1,2017-03-30T11:00:00Z,27.8383,-97.0503,0.0,24.1,2 
NERRS,ioos:station:NOAA.NERRS:marscwq:1,2017-03-30T12:00:00Z,27.8383,-97.0503,0.0,23.9,2 
NERRS,ioos:station:NOAA.NERRS:marscwq:1,2017-03-30T13:00:00Z,27.8383,-97.0503,0.0,23.8,2 
NERRS,ioos:station:NOAA.NERRS:marscwq:1,2017-03-30T14:00:00Z,27.8383,-97.0503,0.0,23.7,2 
NERRS,ioos:station:NOAA.NERRS:marscwq:1,2017-03-30T15:00:00Z,27.8383,-97.0503,0.0,23.7,2 
NERRS,ioos:station:NOAA.NERRS:marscwq:1,2017-03-30T16:00:00Z,27.8383,-97.0503,0.0,23.8,2 
NERRS,ioos:station:NOAA.NERRS:marscwq:1,2017-03-30T17:00:00Z,27.8383,-97.0503,0.0,23.8,2 
NERRS,ioos:station:NOAA.NERRS:marscwq:1,2017-03-30T18:00:00Z,27.8383,-97.0503,0.0,23.8,2 
NERRS,ioos:station:NOAA.NERRS:marscwq:1,2017-03-30T19:00:00Z,27.8383,-97.0503,0.0,23.6,2 
NERRS,ioos:station:NOAA.NERRS:marscwq:1,2017-03-30T20:00:00Z,27.8383,-97.0503,0.0,23.9,2 
NERRS,ioos:station:NOAA.NERRS:marscwq:1,2017-03-30T21:00:00Z,27.8383,-97.0503,0.0,23.7,2 
NERRS,ioos:station:NOAA.NERRS:marscwq:1,2017-03-30T22:00:00Z,27.8383,-97.0503,0.0,23.7,2 
NERRS,ioos:station:NOAA.NERRS:marscwq:1,2017-03-30T23:00:00Z,27.8383,-97.0503,0.0,23.6,2 
NERRS,ioos:station:NOAA.NERRS:marscwq:1,2017-03-31T00:00:00Z,27.8383,-97.0503,0.0,23.5,2 
NERRS,ioos:station:NOAA.NERRS:marscwq:1,2017-03-31T02:00:00Z,27.8383,-97.0503,0.0,23.7,2 
NERRS,ioos:station:NOAA.NERRS:marscwq:1,2017-03-31T03:00:00Z,27.8383,-97.0503,0.0,23.9,2 
NERRS,ioos:station:NOAA.NERRS:marscwq:1,2017-03-31T07:00:00Z,27.8383,-97.0503,0.0,23.7,2 
NERRS,ioos:station:NOAA.NERRS:marscwq:1,2017-03-31T08:00:00Z,27.8383,-97.0503,0.0,23.7,2 
NERRS,ioos:station:NOAA.NERRS:marscwq:1,2017-03-31T09:00:00Z,27.8383,-97.0503,0.0,23.8,2 
NERRS,ioos:station:NOAA.NERRS:marscwq:1,2017-03-31T10:00:00Z,27.8383,-97.0503,0.0,23.7,2 
NERRS,ioos:station:NOAA.NERRS:marscwq:1,2017-03-31T12:00:00Z,27.8383,-97.0503,0.0,22.6,2 
NERRS,ioos:station:NOAA.NERRS:marscwq:1,2017-03-31T13:00:00Z,27.8383,-97.0503,0.0,22.6,2 
NERRS,ioos:station:NOAA.NERRS:marscwq:1,2017-03-31T14:00:00Z,27.8383,-97.0503,0.0,22.7,2 
NERRS,ioos:station:NOAA.NERRS:marscwq:1,2017-03-31T15:00:00Z,27.8383,-97.0503,0.0,22.7,2 
NERRS,ioos:station:NOAA.NERRS:marscwq:1,2017-03-31T16:00:00Z,27.8383,-97.0503,0.0,22.7,2 
NERRS,ioos:station:NOAA.NERRS:marscwq:1,2017-03-31T17:00:00Z,27.8383,-97.0503,0.0,22.7,2 
NERRS,ioos:station:NOAA.NERRS:marscwq:1,2017-03-31T18:00:00Z,27.8383,-97.0503,0.0,22.8,2 
NERRS,ioos:station:NOAA.NERRS:marscwq:1,2017-03-31T19:00:00Z,27.8383,-97.0503,0.0,22.8,2 
NERRS,ioos:station:NOAA.NERRS:marscwq:1,2017-03-31T20:00:00Z,27.8383,-97.0503,0.0,22.8,2 
NERRS,ioos:station:NOAA.NERRS:marscwq:1,2017-03-31T21:00:00Z,27.8383,-97.0503,0.0,23.0,2 
NERRS,ioos:station:NOAA.NERRS:marscwq:1,2017-03-31T22:00:00Z,27.8383,-97.0503,0.0,23.0,2 
 
DISCLAIMER: The Gulf of Mexico Coastal and Ocean Observing (GCOOS) Data Portal aggregates data from the regional data providers for the convenience of all data users. Data published on this website should not be used for navigation or certain other uses as we cannot guarantee data accuracy or availability. The data and delivery services are provided 'as is' without warranty of any kind. Data Source: Gulf of Mexico Coastal Ocean Observing System Data Portal (http://data.gcoos.org/) 
